Home > Weather > Oklahoma City > Past weeks

Flag for USA Past Weather in Oklahoma City, Oklahoma, USA — Yesterday and Last 2 Weeks

Now
86 °F

Broken clouds.


Feels Like: 90 °F
Forecast: 71 / 89 °F
Wind: 5 mph from Southwest

Location: Will Rogers World Airport

Current Time: Aug 27, 2016 at 7:43:37 PM

Latest Report: Aug 27, 2016 at 6:52 PM


Visibility: 10 mi

Pressure: 29.93 "Hg

Humidity: 57%

Dew Point: 69 °F

Location of Oklahoma CityLocation

Past Weather in Oklahoma City — Graph

°F

Oklahoma City Temperature Yesterday

Maximum temperature yesterday: 93 °F (at 3:52 PM)
Minimum temperature yesterday: 69 °F (at 5:52 AM)
Average temperature yesterday: 78 °F

High & Low Weather Summary for the Past Weeks

 TemperatureHumidityPressure
High95 °F (Aug 24, 3:52 PM)100% (Aug 17, 6:52 AM)30.15 "Hg (Aug 17, 6:52 AM)
Low58 °F (Aug 22, 4:52 AM)25% (Aug 21, 2:52 PM)29.70 "Hg (Aug 19, 8:52 PM)
Average78 °F67%29.98 "Hg
* Reported Aug 12 5:52 PM — Aug 27 5:52 PM, Oklahoma City, Weather by CustomWeather, © 2016

Note: Actual official high and low records may vary slightly from our data, if they occured in-between our weather recording intervals... More about our weather records

Advertising

Oklahoma City Weather History for the Previous 24 Hours

Scroll right to see more
 ConditionsComfort  
Time TempWeatherWind HumidityBarometerVisibility
5:52 PM
Sat, Aug 27
83 °FBroken clouds.5 mph68%29.92 "Hg10 mi
4:52 PM83 °FBroken clouds.3 mph61%29.93 "Hg10 mi
3:52 PM84 °FLight rain. Broken clouds.5 mph55%29.93 "Hg10 mi
2:52 PM87 °FBroken clouds.7 mph57%29.96 "Hg10 mi
1:52 PM84 °FThundershowers. Partly sunny.12 mph63%29.98 "Hg10 mi
12:52 PM87 °FScattered clouds.5 mph50%29.98 "Hg10 mi
11:52 AM84 °FBroken clouds.5 mph63%30.01 "Hg10 mi
10:52 AM83 °FBroken clouds.8 mph68%30.01 "Hg10 mi
9:52 AM77 °FBroken clouds.9 mph82%30.01 "Hg10 mi
8:52 AM75 °FPartly sunny.10 mph88%30.01 "Hg10 mi
7:52 AM72 °FPassing clouds.8 mph93%30.00 "Hg10 mi
6:52 AM70 °FPassing clouds.6 mph97%29.98 "Hg10 mi
5:52 AM70 °FPartly cloudy.6 mph97%29.97 "Hg10 mi
4:52 AM69 °FPassing clouds.5 mph96%29.94 "Hg10 mi
3:52 AM70 °FPassing clouds.5 mph93%29.94 "Hg10 mi
2:52 AM71 °FPassing clouds.6 mph93%29.96 "Hg10 mi
1:52 AM72 °FPassing clouds.8 mph87%29.97 "Hg10 mi
12:52 AM71 °FPassing clouds.8 mph90%29.98 "Hg10 mi
11:52 PM
Fri, Aug 26
71 °FPassing clouds.5 mph90%29.98 "Hg10 mi
10:52 PM72 °FPassing clouds.7 mph91%29.98 "Hg10 mi
9:52 PM72 °FPassing clouds.6 mph91%29.99 "Hg10 mi
8:52 PM73 °FBroken clouds.7 mph88%29.99 "Hg10 mi
7:52 PM76 °FThundershowers. Cloudy.8 mph74%30.00 "Hg10 mi
Weather by CustomWeather, © 2016

See weather overviewHow to use our weather pages